ATLAS 5 CENTAUR R/B, 41867

Orbit data source: Space-Track

ATLAS 5 CENTAUR R/B, 41867 is space debris in HEO originally from a launch on Sat, 19 Nov 2016 UTC launched from the Air Force Eastern Test Range (AFETR). Debris objects in space refer to the collection of defunct objects orbiting the Earth. Examples of debris include non-operational satellites, rocket bodies, and fragments generated from explosions, collisions, or faulty payload assembly.

Loading next visibility...
ATLAS 5 CENTAUR R/B details
Identifier
41867, 2016-071B
Orbit
HEO
Last TLE update14 hours ago
Origin
Flag of USULA (US)
ManufacturerULA Decatur
MissionSpacecraft
Bus & MotorCENTAUR SEC, RL10C-1
Mass~2,020 kg wet, 2,020 kg dry
Launch date (UTC)
2016-11-19 (8 years ago)
Launch vehicleUnknown
Launch site
Air Force Eastern Test Range (AFETR)
Object type
Payload
Rocket body
Debris
Shape & HBRCyl + 1 Nozzle, 11.7 m
Radar Cross Section32.260 m², Large (>1 m²)

Expand to show TLE details & history

TLE from 14 hours ago
0 ATLAS 5 CENTAUR R/B
1 41867U 16071B   24347.77987480 -.00000048  00000-0  00000-0 0  9994
2 41867  11.6944 308.9133 4919167  57.6411 340.8798  1.89346132 55771
Epoch: 2024-12-12T18:43Z
Definitive object data (Epoch: 2024-12-12T18:43:01.182Z)
Latitude0.00003°
Longitude-53.7835°
Altitude10,212.884 km
Speed5.797 km/s
True Right ascension20h 35m 42s
True Declination0° 00' 00"
Sunlit
Object was in daylight at TLE epoch
Visualization TLE readout
Latitude11.62241°
Longitude44.30357°
Altitude8,848.246 km
Speed6.158 km/s
Apparent Right ascension01h 53m 28s
Apparent Declination-4° 26' 48"
Sunlit
Object is in daylight
Visualization observer readout
Local Sidereal Time07:00:30
Azimuth258.016° W
Elevation7.204°
Doppler factor1
Orbital elements
Apogee altitude34,801.081 km
Perigee altitude7,645.751 km
Semi-major axis27,601.553 km
Eccentricity0.4919167
Inclination11.6944°
RAAN308.9133°
Arg. of periapsis57.6411°
True anomaly302.53963°
Mean anomaly340.8798°
Eccentric anomaly324.52141°
Mean motion0.47331 °/min
BSTARUnknown
Orbital period760.61 mins
Loading maneuver chart data...
Loading historical data...
Loading historical data...
Loading historical data...
Loading historical data...
Loading historical data...
Loading historical data...
Loading historical data...
Other satellites on launch #71 in the year 2016 (2016-11-19 UTC)

ATLAS 5 CENTAUR R/B Visibility forecast

Observer location: undefined°, undefined

Span
Click to sort rows by Start time (UTC) header in descending order
Start Az.
Max El. time (UTC)
Max El. Az.
Max El.
End time (UTC)
End Az.
706 mins2024-12-13 08:33:53.695Z255.324° W2024-12-13 09:55:53.695Z193.927° SSW33.041°2024-12-13 20:19:53.695Z118.734° SE
|